This demonstration page uses our WeatherBlox Daily Observations layout. Learn more.

Left ArrowRight Arrow

39.29038, -76.61219

Hourly Observations for August 25, 2020

Temp ( °F °C ) Dew Point ( °F °C ) Humidity (%) Winds ( mph kmh ) Pressure ( in mb ) Visibility ( mi km ) Precip ( " mm )
12:54 am 00:54 Mostly Clear 77 25 72 22.2 85 85 WSW 5 7 29.97 1015 10 16 0.00 0.00
1:54 am 01:54 Mostly Clear 76 24.4 72 22.2 88 88 WSW 8 13 29.96 1015 10 16 0.00 0.00
2:54 am 02:54 Mostly Clear 76 24.4 72 22.2 88 88 WSW 7 11 29.95 1014 10 16 0.00 0.00
3:54 am 03:54 Mostly Clear 76 24.4 72 22.2 88 88 WSW 6 9 29.93 1014 10 16 0.00 0.00
4:54 am 04:54 Mostly Clear 75 23.9 71 21.7 88 88 WSW 3 6 29.92 1013 10 16 0.00 0.00
5:54 am 05:54 Mostly Clear 75 23.9 70 21.1 84 84 W 7 11 29.92 1013 10 16 0.00 0.00
6:54 am 06:54 Mostly Sunny 75 23.9 70 21.1 84 84 WSW 8 13 29.94 1014 10 16 0.00 0.00
7:54 am 07:54 Mostly Sunny 78 25.6 70 21.1 76 76 WSW 8 13 29.94 1014 10 16 0.00 0.00
8:54 am 08:54 Mostly Sunny 82 27.8 70 21.1 67 67 W 8 13 29.93 1014 10 16 0.00 0.00
9:54 am 09:54 Partly Cloudy 83 28.3 69 20.6 63 63 W 15 24 29.94 1014 10 16 0.00 0.00
10:54 am 10:54 Mostly Cloudy 86 30 72 22.2 63 63 W 8 13 29.93 1014 10 16 0.00 0.00
11:54 am 11:54 Mostly Cloudy 87 30.6 72 22.2 61 61 WNW 10 17 29.90 1013 10 16 0.00 0.00
12:54 pm 12:54 Mostly Cloudy 86 30 72 22.2 63 63 W 12 19 29.89 1012 10 16 0.00 0.00
1:54 pm 13:54 Mostly Sunny 89 31.7 71 21.7 55 55 W 12 19 29.87 1011 10 16 0.00 0.00
2:54 pm 14:54 Mostly Sunny 90 32.2 69 20.6 50 50 W 17 28 29.84 1011 10 16 0.00 0.00
3:54 pm 15:54 Mostly Sunny 90 32.2 71 21.7 54 54 W 15 24 29.83 1010 10 16 0.00 0.00
4:54 pm 16:54 Partly Cloudy 90 32.2 71 21.7 54 54 WSW 14 22 29.81 1010 10 16 0.00 0.00
5:54 pm 17:54 Mostly Cloudy 89 31.7 72 22.2 57 57 W 9 15 29.81 1010 10 16 0.00 0.00
6:54 pm 18:54 Cloudy 87 30.6 72 22.2 61 61 W 6 9 29.81 1010 10 16 0.00 0.00
7:29 pm 19:29 Cloudy with Thunderstorms 85 29.4 72 22.2 65 65 WSW 20 31 29.83 1010 5 8 0.00 0.00
7:36 pm 19:36 Cloudy with Thunderstorms 81 27.2 70 21.1 69 69 WSW 15 24 29.82 1010 2 3 0.06 1.52
7:40 pm 19:40 Cloudy with Thunderstorms 81 27.2 70 21.1 69 69 WSW 10 17 29.82 1010 6 10 0.09 2.29
7:54 pm 19:54 Mostly Cloudy 78 25.6 72 22.2 82 82 W 7 11 29.83 1010 10 16 0.10 2.54
8:54 pm 20:54 Cloudy 78 25.6 70 21.1 76 76 W 13 20 29.85 1011 10 16 0.00 0.00
9:54 pm 21:54 Cloudy 77 25 68 20 74 74 W 8 13 29.89 1012 10 16 0.00 0.00
10:54 pm 22:54 Mostly Cloudy 75 23.9 66 18.9 74 74 W 10 17 29.90 1013 10 16 0.00 0.00
11:54 pm 23:54 Mostly Cloudy 75 23.9 66 18.9 74 74 W 12 19 29.91 1013 10 16 0.00 0.00

Powered by AerisWeather